| time (UTC) | temp F | wind direction | speed knots | gust knots | rain 1hr in | rain 24hr in | rain mn in | humidity % | barometer mb |
| 20260506103102 | 38 | 230 | 0.9 | 3.5 | 0.00 | 0.18 | 0.00 | 86 | 1014.2 |
| 20260506101559 | 38 | 230 | 0.9 | 3.5 | 0.00 | 0.18 | 0.00 | 86 | 1014.2 |
| 20260506100100 | 38 | 229 | 0.9 | 3.5 | 0.00 | 0.18 | 0.00 | 85 | 1014.2 |
| 20260506094554 | 38 | 227 | 0.9 | 6.1 | 0.00 | 0.18 | 0.00 | 86 | 1014.2 |
| 20260506093054 | 38 | 240 | 2.6 | 6.1 | 0.00 | 0.18 | 0.00 | 87 | 1014.1 |
| 20260506091554 | 38 | 263 | 3.5 | 8.7 | 0.00 | 0.18 | 0.00 | 88 | 1014.1 |
| 20260506090049 | 39 | 221 | 2.6 | 7.8 | 0.00 | 0.18 | 0.00 | 87 | 1014.1 |
| 20260506084546 | 39 | 193 | 0.9 | 3.5 | 0.00 | 0.18 | 0.00 | 87 | 1014.1 |
| 20260506083044 | 39 | 188 | 0.0 | 3.5 | 0.00 | 0.18 | 0.00 | 87 | 1014.0 |
| 20260506081541 | 40 | 187 | 0.0 | 2.6 | 0.00 | 0.18 | 0.00 | 87 | 1014.2 |
| 20260506073037 | 40 | 222 | 0.0 | 1.7 | 0.00 | 0.18 | 0.00 | 87 | 1014.5 |
| 20260506071534 | 41 | 222 | 0.0 | 5.2 | 0.00 | 0.18 | 0.00 | 87 | 1014.6 |
| 20260506061526 | 42 | 205 | 0.0 | 5.2 | 0.00 | 0.18 | 0.00 | 90 | 1014.6 |
| 20260506044520 | 42 | 254 | 4.3 | 13.0 | 0.06 | 0.17 | 0.17 | 86 | 1015.1 |
| 20260506043016 | 43 | 74 | 0.9 | 3.5 | 0.04 | 0.15 | 0.15 | 89 | 1014.5 |
| 20260506041514 | 43 | 71 | 1.7 | 8.7 | 0.02 | 0.13 | 0.13 | 87 | 1014.0 |
| 20260506040027 | 42 | 67 | 4.3 | 7.8 | 0.01 | 0.12 | 0.12 | 88 | 1013.7 |
| 20260506034512 | 42 | 355 | 0.9 | 7.8 | 0.01 | 0.11 | 0.11 | 86 | 1014.0 |
| 20260506033010 | 43 | 347 | 2.6 | 7.8 | 0.06 | 0.11 | 0.11 | 86 | 1014.0 |
| 20260506031508 | 43 | 323 | 4.3 | 9.6 | 0.06 | 0.11 | 0.11 | 86 | 1014.0 |
| 20260506030005 | 44 | 304 | 3.5 | 9.6 | 0.06 | 0.11 | 0.11 | 86 | 1014.0 |
| 20260506024502 | 44 | 309 | 10.4 | 17.4 | 0.05 | 0.10 | 0.10 | 81 | 1013.1 |
| 20260506023101 | 46 | 300 | 7.8 | 11.3 | 0.00 | 0.05 | 0.05 | 80 | 1012.7 |
| 20260506021608 | 45 | 338 | 7.0 | 11.3 | 0.03 | 0.05 | 0.05 | 81 | 1011.9 |
| 20260506020057 | 45 | 338 | 4.3 | 10.4 | 0.05 | 0.05 | 0.05 | 84 | 1012.0 |
| 20260506014555 | 45 | 329 | 4.3 | 10.4 | 0.05 | 0.05 | 0.05 | 82 | 1012.1 |
| 20260506013054 | 47 | 316 | 5.2 | 20.0 | 0.05 | 0.05 | 0.05 | 75 | 1011.9 |
| 20260506011546 | 56 | 252 | 12.2 | 17.4 | 0.01 | 0.01 | 0.01 | 46 | 1012.0 |
| 20260506004550 | 58 | 232 | 7.0 | 12.2 | 0.00 | 0.00 | 0.00 | 41 | 1011.0 |
| 20260506003045 | 60 | 239 | 7.0 | 14.8 | 0.00 | 0.00 | 0.00 | 39 | 1011.0 |
| 20260506001547 | 61 | 240 | 6.1 | 13.9 | 0.00 | 0.00 | 0.00 | 37 | 1011.1 |
| 20260505234602 | 62 | 236 | 8.7 | 15.6 | 0.00 | 0.00 | 0.00 | 38 | 1011.0 |
| 20260505233043 | 60 | 220 | 8.7 | 18.2 | 0.00 | 0.00 | 0.00 | 39 | 1010.9 |
| 20260505231543 | 58 | 246 | 12.2 | 21.7 | 0.00 | 0.00 | 0.00 | 42 | 1010.9 |
| 20260505224542 | 60 | 223 | 12.2 | 21.7 | 0.00 | 0.00 | 0.00 | 39 | 1010.7 |
| 20260505223042 | 62 | 214 | 10.4 | 18.2 | 0.00 | 0.00 | 0.00 | 39 | 1010.8 |
| 20260505221539 | 63 | 228 | 9.6 | 19.1 | 0.00 | 0.00 | 0.00 | 37 | 1011.0 |
| 20260505220138 | 64 | 232 | 8.7 | 15.6 | 0.00 | 0.00 | 0.00 | 35 | 1011.0 |
| 20260505214559 | 65 | 223 | 8.7 | 17.4 | 0.00 | 0.00 | 0.00 | 34 | 1011.1 |
| 20260505213036 | 65 | 245 | 8.7 | 15.6 | 0.00 | 0.00 | 0.00 | 34 | 1011.4 |
| 20260505211532 | 64 | 224 | 10.4 | 15.6 | 0.00 | 0.00 | 0.00 | 36 | 1011.6 |
| 20260505210129 | 63 | 257 | 8.7 | 14.8 | 0.00 | 0.00 | 0.00 | 38 | 1011.8 |
| 20260505204524 | 62 | 240 | 9.6 | 17.4 | 0.00 | 0.00 | 0.00 | 40 | 1012.1 |
| 20260505203033 | 60 | 275 | 4.3 | 13.9 | 0.00 | 0.00 | 0.00 | 41 | 1012.2 |
| 20260505201525 | 61 | 277 | 9.6 | 14.8 | 0.00 | 0.00 | 0.00 | 38 | 1012.4 |
| 20260505200020 | 61 | 283 | 7.8 | 13.9 | 0.00 | 0.00 | 0.00 | 40 | 1012.3 |
| 20260505194517 | 60 | 297 | 7.8 | 16.5 | 0.00 | 0.00 | 0.00 | 42 | 1012.3 |
| 20260505193014 | 57 | 238 | 6.1 | 16.5 | 0.00 | 0.00 | 0.00 | 47 | 1012.4 |
| 20260505191513 | 57 | 262 | 7.0 | 13.9 | 0.00 | 0.00 | 0.00 | 44 | 1012.3 |
| 20260505190013 | 58 | 255 | 7.8 | 17.4 | 0.00 | 0.00 | 0.00 | 43 | 1012.3 |
| 20260505184512 | 58 | 226 | 8.7 | 14.8 | 0.00 | 0.00 | 0.00 | 45 | 1012.3 |
| 20260505183016 | 59 | 176 | 5.2 | 13.0 | 0.00 | 0.00 | 0.00 | 38 | 1012.3 |
| 20260505181510 | 59 | 142 | 7.0 | 12.2 | 0.00 | 0.00 | 0.00 | 38 | 1012.4 |
| 20260505180010 | 58 | 196 | 2.6 | 7.0 | 0.00 | 0.00 | 0.00 | 37 | 1012.3 |
| 20260505174513 | 57 | 188 | 5.2 | 7.8 | 0.00 | 0.00 | 0.00 | 37 | 1012.4 |
| 20260505173012 | 57 | 266 | 1.7 | 10.4 | 0.00 | 0.00 | 0.00 | 36 | 1012.7 |
| 20260505171505 | 57 | 325 | 2.6 | 11.3 | 0.00 | 0.00 | 0.00 | 36 | 1012.6 |
| 20260505170005 | 56 | 213 | 2.6 | 7.8 | 0.00 | 0.00 | 0.00 | 37 | 1012.8 |
| 20260505164502 | 55 | 211 | 4.3 | 11.3 | 0.00 | 0.00 | 0.00 | 38 | 1012.9 |
| 20260505163100 | 54 | 205 | 3.5 | 9.6 | 0.00 | 0.00 | 0.00 | 39 | 1013.1 |
| 20260505161621 | 54 | 262 | 4.3 | 8.7 | 0.00 | 0.00 | 0.00 | 40 | 1013.2 |
| 20260505160105 | 53 | 263 | 6.1 | 9.6 | 0.00 | 0.00 | 0.00 | 41 | 1013.4 |
| 20260505153056 | 53 | 271 | 6.1 | 14.8 | 0.00 | 0.00 | 0.00 | 44 | 1013.4 |
| 20260505151600 | 53 | 224 | 9.6 | 14.8 | 0.00 | 0.00 | 0.00 | 44 | 1013.4 |
| 20260505124538 | 46 | 225 | 0.0 | 0.0 | 0.00 | 0.00 | 0.00 | 46 | 1013.4 |
| 20260505123033 | 46 | 225 | 0.0 | 1.7 | 0.00 | 0.00 | 0.00 | 45 | 1013.4 |
| 20260505121529 | 46 | 225 | 0.0 | 2.6 | 0.00 | 0.00 | 0.00 | 44 | 1013.2 |
| 20260505120031 | 47 | 225 | 1.7 | 4.3 | 0.00 | 0.00 | 0.00 | 42 | 1013.1 |
| 20260505114523 | 49 | 253 | 0.0 | 2.6 | 0.00 | 0.00 | 0.00 | 41 | 1012.9 |
| 20260505113023 | 49 | 253 | 1.7 | 4.3 | 0.00 | 0.00 | 0.00 | 39 | 1013.1 |
| 20260505111517 | 50 | 253 | 0.9 | 7.0 | 0.00 | 0.00 | 0.00 | 38 | 1013.1 |